ONEWEB-0688, 61596

Orbit data source: Space-Track

ONEWEB-0688, 61596 is a payload satellite owned by Eut. One Web (UK) in LEO that was launched on Sun, 20 Oct 2024 UTC via an FALCON 9 launch vehicle from the Air Force Western Test Range (AFWTR). Payload-class satellites include a variety of spacecraft equipped with specific instruments for various scientific and technological missions. These include communications satellites like Starlink; space stations such as the ISS; scientific satellites like the Hubble; Earth observation satellites from companies like Planet Labs, Umbra, and HawkEye 360; GPS; miniature CubeSats for education and research; and military/defense satellites.

Loading next visibility...
Identifier
61596, 2024-188C
Orbit
LEO
Last TLE update
10 hours ago
Origin
Manufacturer
One Web
Mission
Operational Commercial Communications
Bus & Motor
ARROW, Unknown motor
Mass
148 kg wet, ~140 kg dry
Launch date (UTC)
2024-10-20 (9 months ago)
Launch vehicle
FALCON 9
Launch site
Air Force Western Test Range (AFWTR)
Object type
Payload
Rocket body
Debris
Shape & HBR
Trap Box + 2 Pan, 2.5 m
Radar Cross Section
2.032 m², Large (>1 m²)

Expand to show TLE details & history

TLE from 10 hours ago
0 ONEWEB-0688
1 61596U 24188C   25199.59594236  .00000121  00000-0  27914-3 0  9999
2 61596  87.9045  72.3188 0001334 122.4671 237.6590 13.17652204 41968
Epoch: 2025-07-18T14:18Z
TLE epoch observation values (Epoch: 2025-07-18T14:18:09.419Z)
Latitude
-0.00001°
Longitude
-78.86558°
Altitude
1,197.14 km
Speed
7.255 km/s
True Right ascension
04h 49m 16s
True Declination
0° 00' 00"
Sunlit
Object was in daylight at epoch
Visualization orbit readout
Latitude
85.72842°
Longitude
-49.77519°
Altitude
1,206.69 km
Speed
7.258 km/s
Apparent Right ascension
01h 05m 12s
Apparent Declination
35° 14' 13"
Sunlit
Object is in daylight
Visualization observer readout
Local Sidereal Time
12:38:44
Azimuth
354.419° N
Elevation
-14.6°
Doppler factor
1
Orbital elements
Apogee altitude
1,191.82 km
Perigee altitude
1,189.8 km
Semi-major axis
7,568.947 km
Eccentricity
0.00013
Inclination
87.9045°
RAAN
72.3188°
Arg. of periapsis
122.4671°
True anomaly
237.64609°
Mean anomaly
237.659°
Eccentric anomaly
237.65254°
Mean motion
3.29602 °/min
Orbital period
109.22 mins
BSTAR
0.00027914
Loading maneuver chart data...
Loading SW <> Apogee altitude chart data...
Loading historical data...
Loading historical data...
Loading historical data...
Loading historical data...
Loading historical data...
Loading historical data...
Loading historical data...
|